Voltar ao catálogo

COSMOS 397 DEB *

AtivoLEO
NORAD 5416·DEBRIS·🇷🇺 Russia

Lançado Feb 25, 1971 de Baikonur Cosmodrome

Loading…

Próximas Passagens (próximas 24 horas)

TLE

AtualizadoSource: Space-Track

Época: Sep 13, 2026, 02:57 UTC

1 05416U 71015BN  26256.12326701  .00000605  00000-0  63828-3 0  9994
2 05416  65.7837 135.6250 0073522 272.6194 241.4363 13.80917333304969

Acompanhe COSMOS 397 DEB * em tempo real com AllMySat

Download on the App Store